This demonstration page uses our WeatherBlox Daily Observations layout. Learn more.

Left ArrowRight Arrow

41.86663, -103.66717

Hourly Observations for January 7, 2016

Temp ( °F °C ) Dew Point ( °F °C ) Humidity (%) Winds ( mph kmh ) Pressure ( in mb ) Visibility ( mi km ) Precip ( " mm )
12:53 am 00:53 Clear 16 -8.9 12 -11.1 84 84 N N/A 29.83 1010 10 16 N/A
1:53 am 01:53 Clear 14 -10 11 -11.7 88 88 N 6 9 29.82 1010 10 16 N/A
2:53 am 02:53 Clear 14 -10 11 -11.7 88 88 NW 5 7 29.83 1010 10 16 N/A
3:53 am 03:53 Clear 11 -11.7 8 -13.3 88 88 WSW 6 9 29.85 1011 10 16 N/A
4:38 am 04:38 Partly Cloudy 12 -11 10 -12 92 92 N 6 9 30.03 1017 7 11 N/A
4:53 am 04:53 Mostly Cloudy with Mist and Fog 13 -10.6 10 -12.2 88 88 NW 6 9 29.86 1011 5 8 N/A
5:21 am 05:21 Partly Cloudy 12 -11.1 9 -12.8 87 87 NNW 6 9 30.03 1017 7 11 N/A
5:53 am 05:53 Clear 12 -11.1 9 -12.8 87 87 NW 6 9 29.88 1012 8 13 N/A
6:53 am 06:53 Cloudy 12 -11.1 10 -12.2 92 92 NW 5 7 29.89 1012 10 16 N/A
7:53 am 07:53 Cloudy 14 -10 10 -12.2 84 84 W 3 6 29.89 1012 10 16 N/A
8:53 am 08:53 Cloudy 17 -8.3 13 -10.6 84 84 E 5 7 29.90 1013 10 16 N/A
9:53 am 09:53 Cloudy 20 -6.7 17 -8.3 89 89 E 5 7 29.93 1013 8 13 N/A
10:53 am 10:53 Sunny 22 -5.6 18 -7.8 85 85 SE 6 9 29.92 1013 7 11 N/A
11:53 am 11:53 Sunny 27 -2.8 21 -6.1 78 78 N N/A 29.87 1012 8 13 N/A
12:53 pm 12:53 Cloudy 27 -2.8 21 -6.1 78 78 N N/A 29.84 1011 8 13 N/A
1:53 pm 13:53 Mostly Sunny 29 -1.7 22 -5.6 75 75 E 3 6 29.83 1010 7 11 N/A
2:53 pm 14:53 Hazy 28 -2.2 22 -5.6 78 78 ESE 3 6 29.84 1011 6 10 N/A
3:53 pm 15:53 Sunny 26 -3.3 21 -6.1 81 81 SSE 3 6 29.87 1011 7 11 N/A
4:53 pm 16:53 Cloudy 25 -3.9 20 -6.7 81 81 N N/A 29.88 1012 7 11 N/A
5:53 pm 17:53 Cloudy 24 -4.4 20 -6.7 84 84 N N/A 29.90 1013 7 11 N/A
6:53 pm 18:53 Cloudy with Mist and Fog 23 -5 19 -7.2 85 85 E 3 6 29.91 1013 6 10 N/A
7:53 pm 19:53 Cloudy with Mist and Fog 24 -4.4 20 -6.7 84 84 E 3 6 29.91 1013 5 8 N/A
8:53 pm 20:53 Cloudy with Haze 25 -3.9 20 -6.7 81 81 N N/A 29.91 1013 6 10 N/A
9:53 pm 21:53 Cloudy with Mist and Fog 25 -3.9 21 -6.1 85 85 SE 5 7 29.91 1013 5 8 N/A
10:53 pm 22:53 Cloudy with Mist and Fog 24 -4.4 20 -6.7 84 84 ESE 5 7 29.92 1013 5 8 N/A
11:53 pm 23:53 Cloudy 24 -4.4 18 -7.8 77 77 NNE 9 15 29.91 1013 10 16 N/A

Powered by AerisWeather